Hourly Weather Poromiv

Today, 4 July, Saturday

Time Temperature Precipitation Wind Pressure Humidity
00:00 +18°C° 0 mm 2 mps 740 mmHg 93%
01:00 +18°C° 0 mm 2 mps 741 mmHg 93%
02:00 +18°C° 0 mm 3 mps 741 mmHg 94%
03:00 +17°C° 0 mm 2 mps 741 mmHg 94%
04:00 +17°C° 0 mm 2 mps 741 mmHg 94%
05:00 +17°C° 0 mm 2 mps 741 mmHg 94%
06:00 +18°C° 0 mm 3 mps 742 mmHg 91%
07:00 +19°C° 0 mm 3 mps 742 mmHg 88%
08:00 +20°C° 0 mm 3 mps 742 mmHg 85%
09:00 +21°C° 0 mm 3 mps 743 mmHg 80%
10:00 +22°C° 0 mm 3 mps 743 mmHg 74%
11:00 +24°C° 0 mm 3 mps 743 mmHg 69%
12:00 +24°C° 0 mm 3 mps 743 mmHg 67%
13:00 +25°C° 0 mm 3 mps 743 mmHg 66%
14:00 +25°C° 0 mm 3 mps 743 mmHg 65%
15:00 +25°C° 0 mm 2 mps 742 mmHg 65%
16:00 +25°C° 0 mm 2 mps 742 mmHg 66%
17:00 +25°C° 0 mm 2 mps 742 mmHg 67%
18:00 +24°C° 0 mm 2 mps 742 mmHg 72%
19:00 +23°C° 0 mm 2 mps 742 mmHg 78%
20:00 +20°C° 0 mm 2 mps 742 mmHg 83%
21:00 +19°C° 0 mm 2 mps 742 mmHg 85%
22:00 +18°C° 0 mm 2 mps 742 mmHg 87%
23:00 +18°C° 0 mm 1 mps 742 mmHg 89%

Tomorrow, 5 July, Sunday

Time Temperature Precipitation Wind Pressure Humidity
00:00 +18°C° 0 mm 1 mps 742 mmHg 89%
01:00 +16°C° 0 mm 1 mps 742 mmHg 88%
02:00 +16°C° 0 mm 1 mps 742 mmHg 87%
03:00 +16°C° 0 mm 1 mps 742 mmHg 87%
04:00 +16°C° 0 mm 1 mps 742 mmHg 87%
05:00 +15°C° 0 mm 1 mps 742 mmHg 87%
06:00 +18°C° 0 mm 1 mps 742 mmHg 83%
07:00 +19°C° 0 mm 2 mps 742 mmHg 79%
08:00 +20°C° 0 mm 2 mps 742 mmHg 75%
09:00 +23°C° 0 mm 2 mps 742 mmHg 72%
10:00 +24°C° 0 mm 2 mps 742 mmHg 68%
11:00 +25°C° 0 mm 2 mps 742 mmHg 64%
12:00 +25°C° 0 mm 2 mps 742 mmHg 62%
13:00 +26°C° 0 mm 2 mps 742 mmHg 61%
14:00 +26°C° 0 mm 2 mps 741 mmHg 59%
15:00 +26°C° 0 mm 2 mps 741 mmHg 60%
16:00 +26°C° 0 mm 2 mps 741 mmHg 60%
17:00 +26°C° 0 mm 2 mps 741 mmHg 61%
18:00 +25°C° 0 mm 1 mps 740 mmHg 66%
19:00 +24°C° 0 mm 1 mps 740 mmHg 71%
20:00 +23°C° 0 mm 1 mps 740 mmHg 77%
21:00 +21°C° 0 mm 2 mps 740 mmHg 78%
22:00 +20°C° 0 mm 2 mps 740 mmHg 79%
23:00 +19°C° 0 mm 2 mps 740 mmHg 81%

Day after tomorrow, 6 July, Monday

Time Temperature Precipitation Wind Pressure Humidity
00:00 +18°C° 0 mm 2 mps 740 mmHg 82%
01:00 +18°C° 0 mm 2 mps 740 mmHg 83%
02:00 +17°C° 0 mm 2 mps 740 mmHg 84%
03:00 +17°C° 0 mm 2 mps 739 mmHg 87%
04:00 +17°C° 0 mm 2 mps 739 mmHg 89%
05:00 +17°C° 0 mm 2 mps 739 mmHg 92%
06:00 +19°C° 0 mm 3 mps 739 mmHg 89%
07:00 +20°C° 0 mm 3 mps 739 mmHg 87%
08:00 +22°C° 0 mm 3 mps 739 mmHg 84%
09:00 +24°C° 0 mm 3 mps 739 mmHg 80%
10:00 +26°C° 0 mm 3 mps 739 mmHg 76%
11:00 +27°C° 0 mm 3 mps 738 mmHg 71%
12:00 +27°C° 0.4 mm 3 mps 738 mmHg 72%
13:00 +27°C° 0.4 mm 3 mps 738 mmHg 73%
14:00 +27°C° 0.4 mm 3 mps 737 mmHg 74%
15:00 +27°C° 0.6 mm 3 mps 737 mmHg 75%
16:00 +27°C° 0.6 mm 2 mps 737 mmHg 77%
17:00 +27°C° 0.6 mm 2 mps 736 mmHg 79%
18:00 +25°C° 0.4 mm 2 mps 737 mmHg 80%
19:00 +24°C° 0.4 mm 2 mps 737 mmHg 82%
20:00 +23°C° 0.4 mm 2 mps 737 mmHg 83%
21:00 +21°C° 0.1 mm 2 mps 737 mmHg 86%
22:00 +20°C° 0.1 mm 2 mps 737 mmHg 90%
23:00 +19°C° 0.1 mm 2 mps 737 mmHg 93%

7 July, Tuesday

Time Temperature Precipitation Wind Pressure Humidity
00:00 +19°C° 0.4 mm 3 mps 738 mmHg 92%
01:00 +18°C° 0.4 mm 3 mps 738 mmHg 91%
02:00 +17°C° 0.4 mm 3 mps 738 mmHg 90%
03:00 +17°C° 0 mm 3 mps 738 mmHg 89%
04:00 +15°C° 0 mm 4 mps 739 mmHg 88%
05:00 +14°C° 0 mm 4 mps 739 mmHg 87%
06:00 +15°C° 0 mm 4 mps 740 mmHg 84%
07:00 +15°C° 0 mm 4 mps 740 mmHg 81%
08:00 +15°C° 0 mm 5 mps 741 mmHg 78%
09:00 +16°C° 0 mm 5 mps 741 mmHg 74%
10:00 +17°C° 0 mm 5 mps 741 mmHg 71%
11:00 +17°C° 0 mm 5 mps 741 mmHg 67%
12:00 +19°C° 0.1 mm 5 mps 741 mmHg 67%
13:00 +19°C° 0.1 mm 5 mps 741 mmHg 67%
14:00 +19°C° 0.1 mm 5 mps 741 mmHg 67%
15:00 +19°C° 0.1 mm 5 mps 741 mmHg 67%
16:00 +19°C° 0.1 mm 4 mps 741 mmHg 68%
17:00 +19°C° 0.1 mm 4 mps 741 mmHg 68%
18:00 +18°C° 0 mm 4 mps 741 mmHg 73%
19:00 +17°C° 0 mm 3 mps 741 mmHg 77%
20:00 +16°C° 0 mm 3 mps 741 mmHg 82%
21:00 +14°C° 0 mm 3 mps 742 mmHg 84%
22:00 +14°C° 0 mm 2 mps 742 mmHg 87%
23:00 +13°C° 0 mm 2 mps 742 mmHg 89%

8 July, Wednesday

Time Temperature Precipitation Wind Pressure Humidity
00:00 +12°C° 0 mm 2 mps 742 mmHg 90%
01:00 +12°C° 0 mm 2 mps 742 mmHg 91%
02:00 +10°C° 0 mm 2 mps 743 mmHg 92%
03:00 +10°C° 0 mm 2 mps 743 mmHg 92%
04:00 +10°C° 0 mm 2 mps 743 mmHg 92%
05:00 +10°C° 0 mm 2 mps 743 mmHg 92%
06:00 +12°C° 0 mm 2 mps 743 mmHg 86%
07:00 +14°C° 0 mm 2 mps 744 mmHg 81%
08:00 +16°C° 0 mm 2 mps 744 mmHg 75%
09:00 +17°C° 0 mm 3 mps 744 mmHg 70%
10:00 +18°C° 0 mm 3 mps 744 mmHg 66%
11:00 +19°C° 0 mm 3 mps 744 mmHg 61%
12:00 +19°C° 0 mm 3 mps 744 mmHg 60%
13:00 +20°C° 0 mm 3 mps 744 mmHg 60%
14:00 +20°C° 0 mm 3 mps 744 mmHg 59%
15:00 +20°C° 0.2 mm 3 mps 744 mmHg 62%
16:00 +20°C° 0.2 mm 3 mps 744 mmHg 66%
17:00 +19°C° 0.2 mm 3 mps 744 mmHg 69%
18:00 +18°C° 0.1 mm 3 mps 744 mmHg 74%
19:00 +17°C° 0.1 mm 2 mps 744 mmHg 79%
20:00 +16°C° 0.1 mm 2 mps 744 mmHg 84%
21:00 +15°C° 0 mm 2 mps 744 mmHg 86%
22:00 +14°C° 0 mm 2 mps 744 mmHg 87%
23:00 +13°C° 0 mm 2 mps 745 mmHg 89%

9 July, Thursday

Time Temperature Precipitation Wind Pressure Humidity
00:00 +12°C° 0 mm 2 mps 745 mmHg 88%
01:00 +12°C° 0 mm 1 mps 745 mmHg 87%
02:00 +11°C° 0 mm 1 mps 745 mmHg 86%
03:00 +11°C° 0 mm 1 mps 745 mmHg 86%
04:00 +11°C° 0 mm 1 mps 745 mmHg 87%
05:00 +11°C° 0 mm 1 mps 745 mmHg 87%
06:00 +13°C° 0 mm 1 mps 745 mmHg 82%
07:00 +15°C° 0 mm 1 mps 745 mmHg 77%
08:00 +18°C° 0 mm 1 mps 745 mmHg 72%
09:00 +19°C° 0 mm 1 mps 745 mmHg 69%
10:00 +19°C° 0 mm 2 mps 745 mmHg 65%
11:00 +21°C° 0 mm 2 mps 745 mmHg 61%
12:00 +21°C° 0 mm 2 mps 745 mmHg 61%
13:00 +23°C° 0 mm 2 mps 744 mmHg 60%
14:00 +23°C° 0 mm 2 mps 744 mmHg 60%
15:00 +24°C° 0.1 mm 2 mps 744 mmHg 61%
16:00 +24°C° 0.1 mm 2 mps 743 mmHg 63%
17:00 +24°C° 0.1 mm 3 mps 743 mmHg 64%
18:00 +23°C° 0 mm 2 mps 743 mmHg 69%
19:00 +20°C° 0 mm 2 mps 743 mmHg 74%
20:00 +19°C° 0 mm 2 mps 742 mmHg 79%
21:00 +18°C° 0 mm 2 mps 742 mmHg 81%
22:00 +17°C° 0 mm 2 mps 742 mmHg 84%
23:00 +17°C° 0 mm 3 mps 742 mmHg 86%
Show more